Flag Weather past 2 weeks in Klaksvík, Faroe Islands, Faroe Islands

Now
47 °F

Partly sunny.


Feels Like: 45 °F
Forecast: 43 / 48 °F
Wind: 6 mph from Southeast

Location: Thorshavn

Current Time: Nov 27, 2014 at 11:52:49 AM

Latest Report: Nov 27, 2014 at 11:00 AM


Visibility: 19 mi

Pressure: 29.75 "Hg

Humidity: 88%

Dew point: 44 °F

Location of KlaksvíkLocation

Historic Weather in Klaksvík — Graph

°F

Klaksvík temperature yesterday

Maximum temperature yesterday: 48 °F (at 12:00 PM)
Minimum temperature yesterday: 41 °F (at 9:00 PM)
Average temperature yesterday: 44 °F

Past Weeks' High & Low Weather Summary

 TemperatureHumidityPressure
High51 °F (Nov 13, 7:00 PM)100% (Nov 22, 8:00 PM)30.30 "Hg (Nov 22, 8:00 PM)
Low39 °F (Nov 23, 9:00 PM)71% (Nov 25, 1:00 PM)29.44 "Hg (Nov 13, 1:00 AM)
Average48 °F90%29.89 "Hg
* Reported Nov 12 10:00 AM — Nov 27 10:00 AM, Klaksvík, Weather by CustomWeather, © 2014

Note: Actual official high and low records may vary slightly from our data, if they occured in-between our weather recording intervals... More about our weather records

Advertising

Klaksvík weather history for previous 24 hours

 ConditionsComfort  
Time TempWeatherWind HumidityBarometerVisibility
10:00 AM
Nov 27
47 °FOvercast.5 mph92%29.75 "Hg19 mi
9:00 AM46 °FOvercast.5 mph95%29.75 "Hg28 mi
8:00 AM45 °FFog.9 mph92%29.74 "Hg3 mi
7:00 AM45 °FOvercast.9 mph90%29.73 "Hg31 mi
6:00 AM43 °FOvercast.3 mph86%29.73 "Hg28 mi
5:00 AM41 °FOvercast.3 mph88%29.73 "Hg22 mi
4:00 AM40 °FOvercast.2 mph90%29.74 "Hg22 mi
3:00 AM40 °FOvercast.2 mph90%29.75 "Hg25 mi
2:00 AM41 °FOvercast.3 mph92%29.75 "Hg25 mi
1:00 AM42 °FOvercast.3 mph84%29.75 "Hg25 mi
12:00 AM42 °FOvercast.1 mph84%29.75 "Hg18 mi
11:00 PM
Nov 26
43 °FOvercast.2 mph84%29.75 "Hg19 mi
10:00 PM42 °FOvercast.2 mph88%29.76 "Hg16 mi
9:00 PM41 °FOvercast.1 mph90%29.76 "Hg17 mi
8:00 PM41 °FOvercast.1 mph89%29.76 "Hg22 mi
7:00 PM41 °FOvercast.5 mph87%29.76 "Hg28 mi
6:00 PM42 °FDrizzle. Overcast.9 mph88%29.75 "Hg4 mi
5:00 PM42 °FDrizzle. Overcast.14 mph87%29.74 "Hg28 mi
4:00 PM42 °FLight rain. Overcast.22 mph88%29.73 "Hg4 mi
3:00 PM44 °FDrizzle. Overcast.13 mph82%29.73 "Hg7 mi
2:00 PM44 °FLight rain. Overcast.13 mph91%29.74 "Hg6 mi
1:00 PM46 °FRain. Overcast.14 mph86%29.74 "Hg3 mi
12:00 PM48 °FOvercast.12 mph76%29.75 "Hg14 mi
11:00 AM47 °FOvercast.15 mph74%29.77 "Hg18 mi
Weather by CustomWeather, © 2014

See weather overviewHow to use our weather pages